Lapse_Rate
4.6 5.0 6.1 7.8 6.5 6.5 6.5 6.5 6.5 6.5 6.5 7.0 7.2 6.8 6.6 6.8 6.5 6.5 5.6 6.4 6.2 5.6 5.6 5.8 6.1 6.2 6.3 6.1 6.1 6.1 6.0 6.1 6.2 6.1 6.2 6.4 6.4 6.4 6.7 6.5 6.9 6.6 7.0 7.0 7.0 6.9 6.6 6.3 6.3
5.4 7.0 7.4 6.2 6.5 6.5 6.5 6.5 6.5 6.5 6.8 7.4 7.4 7.2 6.8 6.5 7.6 6.5 7.3 6.9 6.8 6.1 5.7 5.5 6.0 6.0 6.1 6.2 6.2 6.1 6.1 6.3 6.5 6.8 6.4 6.6 6.5 6.3 6.7 6.9 7.1 7.0 7.2 7.0 7.0 6.8 6.9 6.6 6.4
7.3 8.8 6.6 6.5 6.5 6.5 6.5 6.5 6.5 6.6 7.2 6.9 6.9 7.1 7.2 6.9 8.1 8.0 7.9 7.6 7.6 6.5 5.9 5.9 6.0 5.9 5.9 5.8 6.2 6.5 6.4 6.6 6.2 6.3 6.6 6.4 6.4 6.4 6.8 7.0 6.6 6.8 6.7 6.9 7.1 7.2 6.8 6.5 6.3
6.6 6.7 6.0 6.5 6.5 6.5 6.5 6.5 6.6 6.6 7.2 7.4 7.0 6.5 7.9 8.4 8.2 7.9 8.3 8.5 7.8 6.5 5.9 6.0 5.8 5.8 5.9 6.0 6.8 6.7 6.3 6.4 6.4 6.5 6.4 6.4 6.6 6.9 6.8 6.6 6.7 6.7 6.6 6.7 6.5 6.5 6.6 6.6 6.4
7.6 6.2 6.5 6.5 6.5 6.5 6.5 6.7 6.9 6.5 6.7 6.9 7.2 6.7 6.8 7.1 7.8 8.1 8.2 8.7 6.9 5.9 5.2 5.6 5.8 5.8 6.2 6.6 6.5 6.3 6.1 6.2 6.3 6.2 6.3 6.8 7.0 6.9 6.8 6.6 6.8 6.7 6.7 6.7 6.6 6.4 6.1 6.3 6.6
6.2 5.8 6.5 6.5 6.5 6.5 6.5 7.1 6.3 6.6 6.9 7.1 7.0 6.9 6.9 7.8 7.2 7.5 8.7 7.5 5.7 5.0 4.9 5.7 5.8 5.9 6.3 6.5 6.2 6.0 6.2 6.2 6.1 6.1 6.5 6.4 6.3 6.6 6.7 6.7 7.0 6.8 6.9 6.6 6.4 6.4 6.1 6.5 6.5
6.5 6.5 6.5 6.5 6.5 6.5 6.5 7.0 6.5 6.5 6.8 6.8 7.5 6.5 7.3 7.1 7.4 8.0 8.0 6.8 6.3 4.6 4.9 5.4 5.4 5.9 6.3 6.3 6.1 6.0 6.2 6.0 6.1 5.9 6.3 6.4 6.5 6.8 6.7 6.6 6.9 7.0 6.8 6.5 6.4 6.1 6.0 6.2 6.0
6.7 6.5 6.5 6.5 6.5 6.5 6.6 6.9 7.1 6.9 6.7 8.2 7.9 6.5 6.6 7.3 7.5 8.0 7.8 7.2 5.5 5.4 4.9 5.1 4.8 5.5 5.7 6.0 6.0 6.1 5.9 5.9 5.9 6.3 6.7 6.7 6.9 7.0 6.9 6.4 6.9 6.8 6.6 6.4 6.1 5.8 5.6 5.7 6.0
7.6 6.5 6.5 6.5 6.5 6.5 6.8 6.5 7.4 6.9 7.1 7.6 7.4 7.4 7.5 7.1 7.3 8.1 8.1 6.9 6.5 5.8 4.9 5.2 5.1 5.3 5.1 5.3 5.9 5.9 5.6 6.0 6.2 6.4 7.1 6.4 6.3 6.4 6.4 6.5 6.7 6.4 6.4 6.5 6.0 5.7 5.8 5.9 6.2
6.4 6.5 6.5 6.5 6.5 6.5 6.7 6.7 6.8 6.8 6.9 7.0 7.5 8.1 8.0 6.9 7.2 7.6 7.9 7.1 6.7 6.1 6.0 5.5 5.2 5.2 5.3 6.3 5.2 5.0 5.5 6.3 6.2 6.2 6.7 6.4 6.8 6.1 6.0 6.5 6.3 6.5 6.3 5.6 5.2 4.9 4.9 4.8 4.8
6.7 6.5 6.5 6.6 6.7 7.0 6.7 6.7 6.7 6.6 6.5 7.0 6.6 7.5 7.7 7.2 7.1 7.8 7.3 6.7 6.3 6.4 7.4 6.3 5.8 5.8 5.0 5.0 4.4 4.8 5.0 5.3 6.0 6.6 6.4 6.9 6.6 6.1 5.9 6.0 6.0 6.2 7.0 5.9 4.5 4.3 5.1 4.6 4.1
6.5 6.6 6.7 5.9 6.7 6.9 6.6 6.8 6.7 6.9 6.4 7.3 7.7 7.9 7.7 7.6 7.1 7.5 8.1 6.9 6.5 7.5 7.3 6.5 5.6 5.4 5.7 4.7 4.8 5.6 5.4 5.9 5.9 6.1 6.2 5.7 4.6 4.7 5.2 5.4 5.3 4.9 6.1 4.8 4.8 3.2 4.2 4.4 5.2
6.5 6.5 6.8 7.0 6.6 6.3 7.1 6.8 6.0 6.5 7.3 8.0 7.7 8.0 7.6 7.5 7.3 7.8 7.1 7.7 6.8 7.2 6.8 6.2 5.0 5.9 5.8 4.3 5.8 5.6 5.8 6.2 5.6 4.3 5.1 4.6 4.8 4.7 4.9 4.2 4.5 4.4 5.5 4.8 3.8 3.9 3.7 3.7 4.4
6.5 6.6 6.5 6.5 6.4 6.5 6.6 6.7 6.9 7.0 7.3 7.4 7.6 7.6 7.5 7.5 7.1 7.8 6.8 7.1 5.9 7.4 6.9 5.7 5.4 4.9 5.0 4.3 5.5 5.2 5.9 6.9 5.3 4.6 6.5 6.3 5.2 5.1 4.9 4.2 4.0 4.4 4.9 5.4 4.2 3.3 3.7 3.6 5.3
6.1 6.5 6.5 6.4 6.3 6.6 7.1 6.5 6.5 5.8 6.8 6.8 7.5 7.6 7.6 7.6 7.3 7.2 6.4 6.3 5.3 6.7 6.4 5.5 5.0 6.1 4.8 5.6 6.0 6.1 5.7 6.9 5.3 4.6 5.6 5.6 6.0 6.2 5.3 3.9 4.8 4.6 5.2 5.9 5.7 5.4 5.5 5.0 5.2
6.5 6.5 6.5 6.5 6.5 6.3 6.3 6.5 6.5 6.2 6.8 6.8 7.4 7.7 7.6 7.1 7.0 6.9 6.5 6.5 4.9 6.1 5.9 6.0 7.7 5.2 5.1 5.4 5.5 5.8 5.0 4.9 6.0 5.9 5.7 6.1 6.6 6.3 5.4 4.1 4.5 5.9 5.5 5.6 4.7 5.3 4.8 5.4 4.6
6.5 6.5 6.5 6.5 6.4 6.5 6.5 6.5 6.7 6.2 6.8 6.7 7.0 7.2 7.5 7.3 7.1 6.7 7.1 6.7 5.4 5.5 5.5 5.3 5.1 4.6 5.0 5.1 5.4 5.9 6.0 5.6 5.9 6.4 6.3 6.9 7.0 5.9 5.2 4.2 4.3 5.9 4.5 5.0 5.3 4.4 6.0 5.5 4.8
6.5 6.5 6.5 6.5 6.5 6.5 6.5 6.5 6.5 6.7 6.4 5.6 6.7 7.1 7.1 7.3 7.3 7.3 7.6 6.9 5.5 5.4 5.2 4.6 5.9 4.6 4.3 4.4 4.4 5.0 5.3 4.8 6.0 5.8 6.5 6.4 6.3 5.3 4.8 4.0 4.5 5.7 3.8 3.4 4.1 5.8 4.2 4.1 6.0
6.5 6.5 6.5 6.5 6.5 6.5 6.5 6.5 6.5 6.6 6.3 6.7 5.7 6.6 6.8 7.1 7.2 6.7 7.8 6.8 5.6 5.3 5.2 4.5 4.9 5.2 4.7 4.7 4.4 4.7 5.1 4.7 4.3 5.6 6.6 6.7 5.9 5.1 4.5 4.3 4.6 4.4 4.6 3.9 4.8 4.6 4.9 5.2 4.9
6.5 6.5 6.5 6.5 6.5 6.5 6.5 6.5 6.5 6.5 6.6 6.5 6.3 6.5 6.9 7.1 7.2 7.2 7.8 6.9 5.8 5.2 5.3 4.2 5.3 5.2 4.9 4.9 4.3 4.6 4.8 4.6 4.6 4.8 5.6 6.5 6.1 5.6 5.2 4.7 4.4 4.2 4.3 4.3 4.1 4.6 4.2 3.3 3.8
6.5 6.5 6.5 6.5 6.5 6.5 6.5 6.5 6.5 6.5 6.6 6.7 5.5 5.2 6.7 6.9 7.4 7.6 7.5 7.0 5.8 5.2 4.9 4.5 4.9 5.0 5.0 4.7 4.2 4.6 5.3 4.2 4.4 4.7 4.7 5.4 7.0 6.3 6.3 5.0 5.0 4.5 4.2 3.8 4.4 4.4 4.6 4.6 3.7
6.5 6.5 6.5 6.5 6.5 6.5 6.5 6.5 6.5 6.5 6.5 6.5 6.8 6.3 4.7 6.9 7.3 7.6 6.9 6.9 6.1 5.4 5.4 4.5 4.7 5.4 4.7 5.1 4.4 4.6 5.7 5.8 4.5 5.5 4.6 5.1 6.4 6.3 6.3 5.8 5.4 4.7 4.1 4.4 4.5 4.8 4.1 3.6 4.2
6.5 6.5 6.5 6.5 6.5 6.5 6.5 6.5 6.5 6.5 6.5 6.5 6.4 4.9 3.5 4.6 7.0 6.9 6.6 6.9 6.6 5.6 5.6 5.0 4.5 5.5 6.1 5.1 5.0 4.0 4.5 4.5 4.5 5.4 5.6 4.2 4.3 5.8 6.3 5.8 5.3 4.1 3.8 3.8 4.6 5.0 4.6 4.1 4.0
6.5 6.5 6.5 6.5 6.5 6.5 6.5 6.5 6.5 6.5 6.5 6.5 6.3 5.7 3.8 5.2 6.5 7.2 7.0 6.7 6.4 5.9 5.8 5.3 4.5 5.2 5.3 4.8 3.9 3.9 4.0 4.0 5.6 5.1 4.1 4.8 4.5 4.6 6.0 5.7 5.2 4.8 4.4 4.2 4.5 4.9 5.4 4.8 4.4
6.5 6.5 6.5 6.5 6.5 6.5 6.5 6.5 6.5 6.5 6.5 6.5 6.5 6.6 6.6 4.6 6.6 7.2 7.0 7.1 6.8 6.0 5.6 5.3 4.8 4.7 5.0 4.8 4.9 3.5 3.5 3.3 4.2 3.6 4.5 5.9 4.3 4.2 4.4 4.4 4.1 3.9 4.6 4.6 4.8 4.7 4.6 4.6 4.5
6.5 6.5 6.5 6.5 6.5 6.5 6.5 6.5 6.5 6.5 6.4 6.6 6.6 5.1 6.5 2.2 3.0 5.4 7.1 7.3 6.7 5.8 5.7 5.3 5.0 5.1 4.9 4.5 5.1 3.6 2.9 3.8 3.2 4.0 3.9 5.7 5.1 5.1 3.9 3.6 3.9 4.2 4.5 4.7 4.3 4.3 3.8 4.3 4.1
6.5 6.5 6.5 6.5 6.5 6.5 6.5 6.5 6.5 6.5 6.5 6.4 6.5 6.7 6.1 2.7 2.1 3.3 5.3 7.2 6.9 6.2 6.0 5.5 4.8 5.1 4.7 4.1 4.4 4.4 2.9 4.0 3.4 4.0 4.4 4.3 4.3 4.9 4.2 4.4 4.2 4.2 3.9 4.2 3.5 3.5 3.6 4.0 3.6
6.5 6.5 6.5 6.5 6.5 6.5 6.5 6.5 6.5 6.5 6.5 6.5 6.5 6.5 5.5 3.4 3.0 3.8 3.6 3.9 6.0 7.2 6.1 6.5 5.3 4.6 4.6 5.0 4.5 4.6 4.0 3.2 3.0 3.4 4.0 4.5 4.4 4.8 3.7 4.7 4.6 4.3 3.6 3.6 3.5 3.8 3.8 3.9 3.7
6.5 6.5 6.5 6.5 6.5 6.5 6.5 6.5 6.5 6.5 6.5 6.5 6.5 6.5 5.4 4.5 3.7 5.3 1.5 3.0 2.5 3.2 6.8 6.2 5.9 5.2 4.8 5.0 4.8 4.8 4.7 3.9 2.4 3.6 3.8 3.6 4.1 3.4 4.4 4.4 4.1 4.0 4.0 4.0 3.6 3.8 4.2 3.8 4.0
6.5 6.5 6.5 6.5 6.5 6.5 6.5 6.5 6.5 6.5 6.5 6.4 6.3 6.7 6.6 6.7 6.7 3.1 2.7 2.5 1.5 2.6 7.2 6.8 6.3 5.5 5.1 4.6 5.3 4.8 4.5 4.4 4.3 2.3 2.9 3.7 3.7 3.3 3.9 5.1 5.2 4.9 4.4 4.3 4.1 4.4 5.4 4.8 4.7
Wind_Speed
11 10 4 1 2 3 3 1 5 13 11 14 13 9 6 5 1 4 14 13 18 14 16 12 13 14 15 15 15 15 16 15 14 12 11 13 13 13 13 13 13 13 13 13 14 13 13 14 13
10 9 2 3 3 2 2 5 5 17 18 21 20 17 9 5 8 14 14 19 16 18 16 15 16 15 15 15 14 14 14 14 12 13 13 13 13 13 12 12 14 14 13 14 13 13 13 14 13
7 7 2 2 1 2 4 5 5 21 17 10 7 12 6 10 16 12 18 20 20 16 19 18 17 16 15 14 14 14 13 15 14 13 13 14 13 12 12 13 14 14 15 14 13 14 12 13 12
5 2 2 2 5 6 5 11 7 18 19 18 16 13 13 11 7 14 22 20 17 18 20 19 18 16 15 14 14 15 15 14 15 14 14 14 14 13 13 13 14 14 14 14 12 13 13 12 11
3 2 3 4 4 3 8 17 10 15 14 21 27 17 7 13 19 22 21 19 20 15 19 18 17 17 16 14 17 14 15 15 14 14 14 14 13 13 13 13 14 13 12 11 12 12 11 11 9
1 1 2 2 4 7 10 19 7 17 19 20 20 14 6 20 20 18 18 21 20 18 18 17 18 17 16 16 16 15 15 15 14 13 14 13 13 12 13 13 14 13 13 11 10 9 8 8 7
2 1 3 2 8 6 11 5 9 14 21 15 19 13 13 18 17 17 21 21 19 22 17 15 15 17 16 17 15 15 15 14 15 13 13 13 13 13 13 13 13 13 13 11 10 8 7 6 6
3 2 3 5 4 2 9 11 15 19 14 20 19 9 17 16 17 13 22 21 20 16 16 15 14 16 15 14 15 14 14 16 14 12 13 13 13 13 13 12 13 14 12 11 10 8 7 2 3
6 2 5 2 2 4 10 4 11 14 19 16 8 18 25 21 17 15 21 20 17 14 16 16 13 14 17 14 14 16 15 15 14 11 12 14 11 15 12 12 13 13 11 10 8 7 5 3 3
8 2 3 8 6 7 12 13 9 9 18 17 20 21 22 19 12 15 22 18 16 18 17 15 14 15 17 14 15 15 13 15 15 13 12 8 6 13 13 13 11 12 11 11 7 8 5 5 5
15 12 8 4 2 15 17 5 20 20 17 23 26 27 24 17 15 16 22 21 19 20 15 17 14 18 13 13 13 11 12 14 15 12 8 4 12 12 14 10 8 10 10 7 9 8 1 4 9
15 18 13 7 9 7 5 2 12 16 5 15 27 31 25 20 16 17 21 19 18 18 18 18 14 14 12 14 12 12 11 11 11 14 9 9 6 4 7 6 6 7 9 9 6 4 0 4 6
17 17 15 9 7 7 18 13 14 12 6 19 21 25 21 18 14 18 13 16 17 17 18 16 10 13 12 9 7 9 6 9 10 15 14 5 5 2 9 11 1 4 8 11 10 5 4 4 7
15 16 14 13 8 11 12 9 6 5 6 19 23 23 18 18 16 17 12 15 12 20 17 12 10 10 9 5 5 4 7 13 13 13 9 5 2 6 11 7 6 10 8 15 14 12 10 8 5
14 9 14 6 11 9 19 6 4 5 5 17 22 20 19 16 14 11 12 14 10 17 15 12 12 11 7 6 8 8 11 15 12 9 12 10 4 7 13 9 5 9 7 5 13 12 9 3 1
11 8 6 10 8 10 14 13 16 13 9 16 21 20 20 15 15 9 14 15 12 18 14 11 11 11 8 5 5 9 7 13 11 14 15 12 9 8 6 5 4 3 1 1 5 3 4 2 2
6 8 8 11 15 7 9 11 15 14 10 14 20 20 18 15 17 10 17 16 15 18 14 10 10 9 8 6 5 6 12 10 12 15 15 12 11 12 5 4 2 3 0 2 3 2 4 3 2
7 8 8 10 12 14 11 16 17 16 24 12 14 20 20 16 15 13 20 17 15 18 13 10 10 10 8 5 4 3 3 5 8 11 13 13 12 15 8 3 2 4 3 1 2 2 3 3 3
14 16 15 12 13 8 15 16 17 13 9 10 6 19 20 16 12 10 18 19 16 18 14 12 11 12 6 3 3 3 3 3 4 10 14 13 14 13 8 4 1 5 4 2 3 1 4 3 2
18 16 15 14 13 6 17 13 13 16 8 7 7 19 23 19 15 15 17 20 18 18 16 12 13 13 8 4 3 3 3 3 5 5 11 11 14 14 10 6 3 5 3 5 3 1 2 1 1
14 10 11 11 16 12 13 3 5 9 10 10 7 8 13 24 19 18 18 20 18 17 17 13 15 13 10 9 3 2 2 3 3 3 4 7 14 16 11 8 6 6 3 3 4 4 5 2 2
9 9 11 13 8 3 3 3 6 5 10 10 13 13 7 17 21 17 18 18 20 17 16 14 14 14 10 12 7 5 4 4 4 8 4 6 14 13 14 9 6 6 5 3 3 2 2 3 2
10 10 9 8 7 4 18 2 4 10 10 16 21 17 9 7 22 20 18 19 18 19 17 16 14 15 14 10 10 6 5 4 4 7 10 6 6 13 14 15 10 5 5 4 5 2 4 2 2
7 9 10 7 3 6 10 5 5 12 20 9 19 16 16 16 19 22 22 17 17 18 18 17 16 17 14 12 8 9 9 6 4 9 5 6 4 5 10 14 11 10 5 4 3 3 4 3 2
7 2 3 4 4 7 7 6 8 24 14 22 26 21 19 12 20 23 23 19 18 21 21 18 20 18 17 15 13 8 9 9 7 6 8 10 5 3 6 7 7 4 7 8 6 3 2 3 2
6 7 6 6 5 5 9 6 8 15 24 25 22 24 10 2 6 11 25 23 20 23 23 22 22 21 19 18 16 10 8 7 5 5 4 9 9 8 6 7 10 10 11 8 7 3 3 3 3
7 6 6 6 12 5 6 9 10 11 19 24 24 17 15 9 3 9 14 25 23 20 23 24 22 21 20 20 16 14 9 9 7 8 5 5 7 6 7 12 10 9 10 9 7 4 4 3 4
9 5 4 3 7 7 5 9 6 6 16 26 24 21 18 12 7 12 7 11 13 22 21 21 21 22 21 19 16 14 14 10 8 7 7 7 7 6 8 11 11 9 8 8 7 5 5 5 4
11 6 3 1 2 5 7 7 10 10 7 8 25 27 29 26 28 22 11 13 9 9 17 22 20 22 20 20 17 17 15 12 8 9 9 7 6 7 10 9 7 9 10 9 7 7 7 7 6
14 9 5 3 8 3 4 8 16 11 13 23 24 24 24 24 28 28 34 24 16 8 19 22 21 22 22 20 18 18 16 14 14 8 8 8 8 6 8 11 11 9 7 7 8 9 7 7 8
Wind_Direction
176 184 197 154 276 211 257 107 139 119 93 84 93 133 139 37 117 154 143 137 133 131 145 154 141 130 123 123 121 120 120 124 120 121 116 112 111 107 104 100 103 94 96 97 100 101 104 100 97
181 191 215 229 212 233 40 360 318 106 111 104 100 100 92 90 83 122 142 136 140 133 141 131 135 134 130 130 126 123 123 119 116 110 114 118 115 112 106 101 94 100 97 93 101 97 101 99 93
223 264 204 222 214 166 160 199 236 118 118 110 91 75 62 108 117 129 134 141 133 135 132 135 138 138 134 130 134 129 124 125 118 115 116 120 116 112 107 102 101 96 92 96 98 105 102 99 98
198 214 271 258 241 222 197 196 214 97 88 106 107 72 102 113 95 133 142 143 133 123 126 137 136 131 127 128 122 116 118 117 118 121 123 123 121 116 111 111 106 101 103 100 102 100 103 96 102
241 268 250 258 193 206 200 195 222 122 97 102 108 123 100 96 121 139 149 139 120 119 125 126 131 129 129 124 118 118 116 119 118 124 123 118 116 121 116 115 107 103 104 101 106 107 103 100 102
271 238 264 304 331 149 186 194 171 96 107 104 105 116 109 135 150 160 153 124 124 125 122 129 132 129 128 125 121 122 118 120 122 122 118 120 122 117 114 114 111 113 104 106 108 115 115 105 113
270 297 257 298 350 34 331 131 139 125 123 122 129 115 136 151 167 162 125 125 125 127 125 135 135 131 127 129 129 126 124 127 125 128 125 129 128 126 120 116 114 108 106 108 115 121 122 128 156
215 194 295 25 37 128 271 312 127 137 133 140 129 139 158 166 168 154 129 128 128 133 134 137 135 132 126 133 132 127 134 132 132 136 133 132 126 121 122 125 120 112 110 115 116 110 111 116 49
203 237 297 73 168 245 216 262 128 135 142 159 185 151 154 168 169 146 136 131 136 143 140 145 153 146 137 138 139 138 142 137 139 150 148 138 144 131 125 125 124 123 114 101 101 94 62 8 12
204 210 288 66 210 282 246 232 153 139 161 119 122 133 155 171 175 159 139 144 148 148 152 152 151 146 147 150 153 157 159 152 157 170 168 173 185 136 125 127 136 131 128 109 108 100 61 326 310
221 236 250 295 21 264 263 323 329 153 135 143 144 150 163 173 180 158 147 151 158 158 155 153 156 158 163 155 168 166 176 172 178 174 171 129 107 112 126 127 143 141 123 110 83 96 220 306 308
236 242 233 237 227 183 26 69 33 345 125 155 152 157 164 175 183 158 152 158 161 159 147 156 161 156 165 160 172 166 180 185 163 131 129 138 131 116 111 121 136 47 161 151 101 355 85 80 346
246 248 234 222 157 110 145 122 139 253 254 140 148 154 164 173 183 160 169 152 160 138 148 159 146 150 167 160 148 145 186 161 143 118 117 92 74 198 82 124 63 188 204 162 191 212 275 298 275
260 258 255 181 167 139 119 115 115 264 256 142 149 162 163 179 192 164 162 152 129 140 145 143 132 133 137 135 135 98 150 143 125 133 142 174 198 223 125 159 191 213 214 180 181 197 211 240 238
275 303 306 224 164 148 127 114 193 138 246 157 157 159 173 191 195 173 157 150 134 140 145 141 130 138 119 128 127 148 144 122 136 147 147 165 165 134 140 138 151 212 236 170 112 176 229 223 81
289 298 272 278 205 165 151 120 114 143 164 164 162 163 184 187 198 191 146 150 123 140 145 145 138 126 132 144 98 124 124 136 143 150 157 166 150 124 90 126 170 22 117 52 87 97 133 144 202
286 261 250 253 261 213 150 128 137 141 151 229 171 170 184 187 196 202 151 151 133 145 148 148 138 137 145 165 137 125 132 160 154 149 149 155 147 126 132 147 87 133 253 20 81 72 159 161 199
256 259 232 248 254 243 143 134 156 174 173 173 205 173 180 196 206 197 160 154 137 152 153 141 148 143 149 165 137 111 79 125 139 147 159 156 139 128 130 185 177 175 108 35 123 133 91 155 190
271 281 289 281 250 222 161 146 162 193 159 154 228 177 177 196 211 200 164 158 144 152 155 146 146 157 145 148 146 136 168 147 113 133 158 163 150 154 148 157 240 169 164 155 72 142 106 31 71
250 264 279 289 284 96 139 157 169 172 150 181 173 188 176 189 204 204 173 161 155 155 163 151 156 159 152 158 170 159 167 178 158 154 175 194 168 157 158 175 170 175 149 118 118 133 95 35 118
246 241 271 273 303 75 102 75 208 192 97 137 126 295 198 180 197 202 180 164 159 161 165 162 158 163 158 167 172 167 162 88 97 173 180 207 166 166 162 173 172 148 123 154 152 176 135 138 306
257 264 263 269 303 281 242 308 223 175 154 163 166 233 212 227 188 205 178 168 165 170 166 162 158 167 167 169 185 171 183 160 171 175 191 178 170 162 159 165 170 150 139 160 168 184 153 137 200
256 280 287 298 289 297 293 76 272 165 217 196 177 223 201 237 198 191 184 177 168 170 171 168 159 172 177 173 183 181 180 195 145 170 177 172 181 170 167 173 166 159 156 181 176 240 179 159 150
231 257 288 309 358 297 272 160 183 182 211 182 188 208 215 202 235 196 185 173 169 171 175 173 165 180 178 180 178 187 189 193 175 176 162 172 182 175 178 164 165 169 171 196 199 188 154 159 175
262 228 323 319 283 248 280 295 231 208 197 189 197 221 208 167 195 197 184 183 176 178 179 181 178 179 183 187 192 192 197 184 189 167 170 169 176 182 181 162 167 165 168 188 191 180 179 191 212
251 188 173 223 240 261 231 250 262 196 192 196 201 210 179 85 67 249 184 187 183 183 183 184 185 184 184 187 195 197 204 193 192 183 173 176 181 192 174 169 166 175 173 180 183 186 205 195 237
273 278 229 245 277 294 273 285 276 254 176 185 196 200 174 149 42 291 274 186 191 182 190 187 186 190 187 189 192 195 199 197 190 196 189 187 176 186 178 169 172 177 177 179 182 190 216 222 230
177 257 346 292 249 265 272 289 264 296 191 189 189 177 157 138 170 257 287 318 210 194 188 189 186 189 189 190 196 197 198 198 182 186 204 195 191 163 165 172 175 177 184 178 178 191 214 203 224
341 329 325 340 263 251 247 270 248 263 14 151 195 176 167 174 171 188 308 273 263 303 200 189 185 188 191 193 193 199 201 203 190 189 200 197 194 155 166 170 170 179 180 187 183 194 208 198 210
311 314 316 178 279 259 208 273 286 303 328 8 206 194 178 174 172 173 172 234 239 229 240 191 188 189 191 191 194 195 198 202 205 198 191 196 203 180 173 184 184 190 190 183 176 197 200 194 207